Regional Weather Roundup
Issued by NWS

Home | Current Version | Previous Version | Text Only | Print | Product List | Glossary On
Versions: 1 2 3 4 5 6 7 8 9 10 11 12 13 14 15 16 17 18 19 20 21 22 23 24 25 26 27 28 29 30 31 32 33 34 35 36 37 38 39 40 41 42 43 44 45 46 47 48 49 50
241
ASUS44 KJAN 210310
RWRMS

MISSISSIPPI HOURLY WEATHER ROUNDUP
NATIONAL WEATHER SERVICE JACKSON MS
1000 PM CDT WED AUG 20 2014

NOTE: "FAIR: INDICATES FEW OR NO CLOUDS BELOW 12,000 FEET WITH NO
SIGNIFICANT WEATHER AND/OR OBSTRUCTIONS TO VISIBILITY.

MSZ001>002-007>008-010>013-018>021-025>028-034>036-210400-
NORTHWEST MISSISSIPPI

CITY           SKY/WX    TMP DP  RH WIND       PRES   REMARKS
CLARKSDALE     FAIR      77  77 100 CALM      30.05S
CLEVELAND      FAIR      80  74  83 S5        30.04R
GREENWOOD      CLEAR     78  74  87 CALM      30.06R
GREENVILLE     CLEAR     78  74  87 SE5       30.03R
GRENADA        FAIR      75  73  94 CALM      30.07R
OLIVE BRANCH   CLEAR     77  77 100 S6        30.07R
OXFORD         FAIR      75  72  88 CALM      30.10R
TUNICA         CLEAR     77  72  83 SE6       30.06R
$$

MSZ003>006-009-014>017-022>024-029>033-037>039-210400-
NORTHEAST MISSISSIPPI

CITY           SKY/WX    TMP DP  RH WIND       PRES   REMARKS
BELMONT        FAIR      76  74  95 CALM      30.09S
COLUMBUS AFB   CLEAR     78  74  87 CALM      30.08R
CORINTH        FAIR      75  73  94 CALM      30.08R
GOLDN TRIANGLE PTCLDY    82  72  69 CALM      30.09R
STARKVILLE     FAIR      77  72  83 CALM      30.09R
TUPELO         CLEAR     81  73  76 CALM      30.08R
$$

MSZ040-058-210400-
CENTRAL MISSISSIPPI

CITY           SKY/WX    TMP DP  RH WIND       PRES   REMARKS
JACKSON INTL   CLEAR     79  73  82 CALM      30.08R
JACKSON HAWKNS CLEAR     82  73  74 CALM      30.08R
MERIDIAN KEY   CLEAR     78  74  87 CALM      30.09R
MERIDIAN NAS   CLEAR     78  73  84 CALM      30.10R
RAYMOND        FAIR      77  72  83 CALM      30.08R
VICKSBURG      CLEAR     80  73  79 SW5       30.06R
$$

MSZ059>079-210400-
SOUTH MISSISSIPPI

CITY           SKY/WX    TMP DP  RH WIND       PRES   REMARKS
BROOKHAVEN     FAIR      79  73  83 S3        30.12R
COLUMBIA       HAZE      79  73  83 MISG      30.09R VSB<1/4
HATTIESBURG    CLEAR     83  75  77 SW5       30.11R HX  90
MCCOMB         MOCLDY    78  71  79 CALM      30.09R
NATCHEZ        MOCLDY    79  72  78 S6        30.07S
PINE BELT      CLEAR     81  72  74 SW6       30.12R
$$

MSZ080>082-210400-
COASTAL MISSISSIPPI

CITY           SKY/WX    TMP DP  RH WIND       PRES   REMARKS
BILOXI         PTCLDY    85  76  76 SW8       30.10R HX  94
PASCAGOULA     CLEAR     81  76  84 SW3       30.10R
GULFPORT       PTCLDY    85  76  74 SW3       30.09R HX  94
$$



USA.gov is the U.S. government's official web portal to all federal, state and local government web resources and services.